map of OIT home
OIT - Airport
Location
City:  Oita, Oita, Japan
Near (Alt.):Kunisaki
Name:Oita Airport
ICAO:RJFO
IATA:OIT

Details
Type:Airport (Aerodrome, Airfield)
Use:Public/Civil
Latitude:3328'46"N (33.479444)
Longitude:13144'14"E (131.737222)
Datum:WGS 1984
Elevation:19 ft (6 m)
Variation:7.53W (WMM2015v2 magnetic declination)
-0.08 annual change
Runways:1
Longest:9840 × 150 ft (2999 × 45.5 m), paved

Time
Time Zone:UTC+9
Local Time:

Weather
METAR:RJFO 041300Z 28004KT 9999 FEW030 SCT160 06/03 Q1023
TAF:RJFO 041106Z 0412/0518 31005KT 9999 FEW040
BECMG 0506/0509 13012KT
TEMPO 0515/0518 4000 -SHRA BR FEW005 BKN008 BKN010
BECMG 0515/0518 08010KT

Related Locations
Nearby:
Farthest:SSMT: 12211 mi / 19652 km
Mostardas, RS, BR

Find:

   beyond  
but within

Other Information
Maps:
NOTAMs:
Links:
Sources:

  
  • flag of Japan
  • flag of Oita
  • flag of Oita
  

Sectional Chart

Flight Planning
at skyvector.com

Satellite Image

Google Maps Satellite view

 

Copyright © 2004-2019 Karl L. Swartz. All rights reserved.
The Great Circle Mapper name and logo are trademarks of the Great Circle Mapper.
All other trademarks mentioned herein belong to their respective owners.
Please see credits for attibutions and further copyright information.

  Follow gcmap on Facebook Follow gcmap on Twitter GCmap on LinkedIn

hCard Microformat

Geo Microformat